This is the latest recevied weather packets stored in our database for station/object AG1T-20. If no packets are shown the sender has not sent any weather packets the latest 10 day(s).
| Time | Temp. | Humidity | Pressure | Rain* | Wind** | Luminosity | Snow |
|---|---|---|---|---|---|---|---|
| 1777764005 | 22.22° C | 16% | 1019.4 hPa | 0 mm | - | 223 W/m² | - |
| 1777763405 | 21.67° C | 17% | 1019.4 hPa | 0 mm | - | 243 W/m² | - |
| 1777762805 | 21.67° C | 16% | 1019.4 hPa | 0 mm | - | 303 W/m² | - |
| 1777762205 | 22.78° C | 17% | 1020 hPa | 0 mm | - | 340 W/m² | - |
| 1777761605 | 21.11° C | 16% | 1020 hPa | 0 mm | - | 386 W/m² | - |
| 1777761005 | 21.67° C | 17% | 1020 hPa | 0 mm | - | 437 W/m² | - |
| 1777760405 | 21.67° C | 17% | 1020 hPa | 0 mm | - | 388 W/m² | - |
| 1777759805 | 20.56° C | 18% | 1020 hPa | 0 mm | - | 412 W/m² | - |
| 1777759205 | 22.22° C | 17% | 1020 hPa | 0 mm | - | 488 W/m² | - |
| 1777758605 | 21.67° C | 18% | 1020.7 hPa | 0 mm | - | 504 W/m² | - |
| 1777757405 | 20.56° C | 18% | 1020.7 hPa | 0 mm | - | 511 W/m² | - |
| 1777756805 | 20.56° C | 18% | 1020.7 hPa | 0 mm | - | 520 W/m² | - |
| 1777756205 | 21.11° C | 17% | 1020.7 hPa | 0 mm | - | 668 W/m² | - |
| 1777755605 | 21.11° C | 21% | 1020.7 hPa | 0 mm | - | 684 W/m² | - |
| 1777755005 | 21.11° C | 19% | 1021.2 hPa | 0 mm | - | 712 W/m² | - |
| 1777754405 | 21.11° C | 26% | 1021.2 hPa | 0 mm | - | 787 W/m² | - |
| 1777752605 | 20.56° C | 20% | 1021.2 hPa | 0 mm | - | 793 W/m² | - |
| 1777752005 | 20° C | 21% | 1021.2 hPa | 0 mm | - | 827 W/m² | - |
| 1777751405 | 20.56° C | 23% | 1022.2 hPa | 0 mm | - | 894 W/m² | - |
| 1777750805 | 20.56° C | 18% | 1022.2 hPa | 0 mm | - | 892 W/m² | - |
| 1777750205 | 20° C | 22% | 1022.2 hPa | 0 mm | - | 886 W/m² | - |
| 1777749605 | 20° C | 22% | 1022.2 hPa | 0 mm | - | 713 W/m² | - |
| 1777747805 | 19.44° C | 31% | 1022.6 hPa | 0 mm | - | 800 W/m² | - |
| 1777747205 | 18.33° C | 31% | 1022.6 hPa | 0 mm | - | 946 W/m² | - |
| 1777746605 | 18.33° C | - | - | 0 mm | - | 101 W/m² | - |
* Rain latest hour (hover to see other rain measurements)
** Current wind speed in m/s (hover to see current wind gust speed)